| time (UTC) | temp F | wind direction | speed MPH | gust MPH | rain 1hr in | rain 24hr in | rain mn in | humidity % | barometer mb |
| 20260906090003 | 54 | 344 | 0.0 | 2.0 | 0.00 | 0.00 | 0.00 | 81 | 998.9 |
| 20260906085003 | 54 | 344 | 0.0 | 1.0 | 0.00 | 0.00 | 0.00 | 80 | 998.7 |
| 20260906084003 | 55 | 342 | 0.0 | 2.0 | 0.00 | 0.00 | 0.00 | 80 | 998.7 |
| 20260906083003 | 54 | 342 | 0.0 | 3.0 | 0.00 | 0.00 | 0.00 | 80 | 998.6 |
| 20260906082003 | 54 | 342 | 1.0 | 3.0 | 0.00 | 0.00 | 0.00 | 81 | 998.5 |
| 20260906081003 | 54 | 342 | 0.0 | 2.0 | 0.00 | 0.00 | 0.00 | 81 | 998.5 |
| 20260906080003 | 54 | 341 | 0.0 | 1.0 | 0.00 | 0.00 | 0.00 | 82 | 998.3 |
| 20260906075004 | 54 | 342 | 1.0 | 2.0 | 0.00 | 0.00 | 0.00 | 82 | 998.1 |
| 20260906074003 | 54 | 342 | 0.0 | 2.0 | 0.00 | 0.00 | 0.00 | 82 | 998.1 |
| 20260906073003 | 55 | 342 | 0.0 | 1.0 | 0.00 | 0.00 | 0.00 | 81 | 998.0 |
| 20260906072003 | 55 | 342 | 1.0 | 4.0 | 0.00 | 0.00 | 0.00 | 80 | 997.9 |
| 20260906071003 | 55 | 342 | 0.0 | 2.0 | 0.00 | 0.00 | 0.00 | 81 | 997.8 |
| 20260906070003 | 54 | 342 | 0.0 | 3.0 | 0.00 | 0.00 | 0.00 | 84 | 997.7 |
| 20260906065003 | 54 | 342 | 0.0 | 2.0 | 0.00 | 0.00 | 0.00 | 85 | 997.6 |
| 20260906064003 | 54 | 342 | 0.0 | 2.0 | 0.00 | 0.00 | 0.00 | 86 | 997.5 |
| 20260906063003 | 54 | 0 | 0.0 | 0.0 | 0.00 | 0.00 | 0.00 | 86 | 997.4 |
| 20260906062003 | 54 | 0 | 0.0 | 0.0 | 0.00 | 0.00 | 0.00 | 86 | 997.3 |
| 20260906061003 | 54 | 0 | 0.0 | 0.0 | 0.00 | 0.00 | 0.00 | 86 | 997.2 |
| 20260906060003 | 54 | 0 | 0.0 | 0.0 | 0.00 | 0.00 | 0.00 | 87 | 997.2 |
| 20260906055003 | 54 | 0 | 0.0 | 0.0 | 0.00 | 0.00 | 0.00 | 88 | 997.1 |
| 20260906054003 | 53 | 342 | 0.0 | 1.0 | 0.00 | 0.00 | 0.00 | 88 | 997.0 |
| 20260906053003 | 53 | 342 | 0.0 | 2.0 | 0.00 | 0.00 | 0.00 | 89 | 997.0 |
| 20260906052003 | 53 | 0 | 0.0 | 0.0 | 0.00 | 0.00 | 0.00 | 90 | 996.9 |
| 20260906051003 | 53 | 0 | 0.0 | 0.0 | 0.00 | 0.00 | 0.00 | 90 | 996.8 |
| 20260906050003 | 53 | 0 | 0.0 | 0.0 | 0.00 | 0.00 | 0.00 | 91 | 996.7 |
| 20260906045003 | 53 | 0 | 0.0 | 0.0 | 0.00 | 0.00 | 0.00 | 91 | 996.6 |
| 20260906044003 | 53 | 0 | 0.0 | 0.0 | 0.00 | 0.00 | 0.00 | 91 | 996.5 |
| 20260906043003 | 53 | 0 | 0.0 | 0.0 | 0.00 | 0.00 | 0.00 | 91 | 996.4 |
| 20260906042003 | 53 | 0 | 0.0 | 0.0 | 0.00 | 0.00 | 0.00 | 91 | 996.4 |
| 20260906041003 | 53 | 0 | 0.0 | 0.0 | 0.00 | 0.00 | 0.00 | 91 | 996.3 |
| 20260906040003 | 53 | 0 | 0.0 | 0.0 | 0.00 | 0.00 | 0.00 | 91 | 996.2 |
| 20260906035003 | 54 | 0 | 0.0 | 0.0 | 0.00 | 0.00 | 0.00 | 91 | 996.1 |
| 20260906034003 | 54 | 0 | 0.0 | 0.0 | 0.00 | 0.00 | 0.00 | 91 | 996.0 |
| 20260906033003 | 54 | 0 | 0.0 | 0.0 | 0.00 | 0.00 | 0.00 | 91 | 995.8 |
| 20260906032004 | 54 | 0 | 0.0 | 0.0 | 0.00 | 0.00 | 0.00 | 90 | 995.7 |
| 20260906031003 | 54 | 0 | 0.0 | 0.0 | 0.00 | 0.00 | 0.00 | 90 | 995.6 |
| 20260906030003 | 54 | 0 | 0.0 | 0.0 | 0.00 | 0.00 | 0.00 | 90 | 995.5 |
| 20260906025003 | 54 | 0 | 0.0 | 0.0 | 0.00 | 0.00 | 0.00 | 90 | 995.4 |
| 20260906024003 | 54 | 0 | 0.0 | 0.0 | 0.00 | 0.00 | 0.00 | 90 | 995.4 |
| 20260906023003 | 54 | 0 | 0.0 | 0.0 | 0.00 | 0.00 | 0.00 | 90 | 995.3 |
| 20260906022003 | 54 | 0 | 0.0 | 0.0 | 0.00 | 0.00 | 0.00 | 90 | 995.2 |
| 20260906021003 | 54 | 0 | 0.0 | 0.0 | 0.00 | 0.00 | 0.00 | 90 | 995.1 |
| 20260906020003 | 54 | 0 | 0.0 | 0.0 | 0.00 | 0.00 | 0.00 | 91 | 995.0 |
| 20260906015004 | 54 | 0 | 0.0 | 0.0 | 0.00 | 0.00 | 0.00 | 91 | 995.0 |
| 20260906014003 | 55 | 0 | 0.0 | 0.0 | 0.00 | 0.00 | 0.00 | 91 | 995.0 |
| 20260906013003 | 54 | 0 | 0.0 | 0.0 | 0.00 | 0.00 | 0.00 | 91 | 995.0 |
| 20260906012003 | 55 | 0 | 0.0 | 0.0 | 0.00 | 0.00 | 0.00 | 90 | 994.9 |
| 20260906011003 | 55 | 0 | 0.0 | 0.0 | 0.00 | 0.00 | 0.00 | 90 | 994.8 |
| 20260906010003 | 55 | 0 | 0.0 | 0.0 | 0.00 | 0.00 | 0.00 | 90 | 994.8 |
| 20260906005003 | 55 | 0 | 0.0 | 0.0 | 0.00 | 0.00 | 0.00 | 90 | 994.6 |
| 20260906004003 | 55 | 0 | 0.0 | 0.0 | 0.00 | 0.00 | 0.00 | 90 | 994.5 |
| 20260906003003 | 54 | 0 | 0.0 | 0.0 | 0.00 | 0.00 | 0.00 | 91 | 994.5 |
| 20260906002003 | 54 | 0 | 0.0 | 0.0 | 0.00 | 0.00 | 0.00 | 91 | 994.4 |
| 20260906001003 | 54 | 0 | 0.0 | 0.0 | 0.00 | 0.00 | 0.00 | 92 | 994.3 |
| 20260906000003 | 54 | 0 | 0.0 | 0.0 | 0.00 | 0.00 | 0.00 | 92 | 994.2 |
| 20260905235003 | 55 | 0 | 0.0 | 0.0 | 0.00 | 0.00 | 0.00 | 92 | 994.1 |
| 20260905234003 | 55 | 0 | 0.0 | 0.0 | 0.00 | 0.00 | 0.00 | 93 | 994.1 |
| 20260905233003 | 55 | 0 | 0.0 | 0.0 | 0.00 | 0.00 | 0.00 | 93 | 994.0 |
| 20260905232003 | 55 | 0 | 0.0 | 0.0 | 0.00 | 0.00 | 0.00 | 93 | 994.0 |
| 20260905231003 | 55 | 0 | 0.0 | 0.0 | 0.00 | 0.00 | 0.00 | 93 | 993.9 |
| 20260905230003 | 55 | 0 | 0.0 | 0.0 | 0.00 | 0.00 | 0.00 | 92 | 993.9 |
| 20260905225003 | 55 | 0 | 0.0 | 0.0 | 0.00 | 0.00 | 0.00 | 92 | 993.8 |
| 20260905224003 | 55 | 0 | 0.0 | 0.0 | 0.00 | 0.00 | 0.00 | 91 | 993.8 |
| 20260905223003 | 55 | 0 | 0.0 | 0.0 | 0.00 | 0.00 | 0.00 | 91 | 993.8 |
| 20260905222003 | 56 | 0 | 0.0 | 0.0 | 0.00 | 0.00 | 0.00 | 91 | 993.8 |
| 20260905221003 | 56 | 0 | 0.0 | 0.0 | 0.00 | 0.00 | 0.00 | 91 | 993.8 |
| 20260905220003 | 56 | 0 | 0.0 | 0.0 | 0.00 | 0.00 | 0.00 | 91 | 993.7 |
| 20260905215003 | 56 | 0 | 0.0 | 0.0 | 0.00 | 0.00 | 0.00 | 91 | 993.8 |
| 20260905214003 | 56 | 0 | 0.0 | 0.0 | 0.00 | 0.00 | 0.00 | 91 | 993.7 |
| 20260905213003 | 56 | 0 | 0.0 | 0.0 | 0.00 | 0.00 | 0.00 | 91 | 993.7 |
| 20260905212003 | 56 | 0 | 0.0 | 0.0 | 0.00 | 0.00 | 0.00 | 91 | 993.7 |
| 20260905211003 | 55 | 0 | 0.0 | 0.0 | 0.00 | 0.00 | 0.00 | 91 | 993.7 |
| 20260905210003 | 55 | 0 | 0.0 | 0.0 | 0.00 | 0.00 | 0.00 | 91 | 993.6 |
| 20260905205003 | 55 | 0 | 0.0 | 0.0 | 0.00 | 0.00 | 0.00 | 91 | 993.5 |
| 20260905204003 | 55 | 0 | 0.0 | 0.0 | 0.00 | 0.00 | 0.00 | 91 | 993.5 |
| 20260905203003 | 55 | 0 | 0.0 | 0.0 | 0.00 | 0.00 | 0.00 | 91 | 993.5 |
| 20260905202003 | 56 | 0 | 0.0 | 0.0 | 0.00 | 0.00 | 0.00 | 91 | 993.4 |
| 20260905201003 | 56 | 0 | 0.0 | 0.0 | 0.00 | 0.00 | 0.00 | 91 | 993.6 |
| 20260905200003 | 56 | 0 | 0.0 | 0.0 | 0.00 | 0.00 | 0.00 | 91 | 993.5 |
| 20260905195004 | 56 | 0 | 0.0 | 0.0 | 0.00 | 0.00 | 0.00 | 91 | 993.5 |
| 20260905194003 | 56 | 0 | 0.0 | 0.0 | 0.00 | 0.00 | 0.00 | 91 | 993.5 |
| 20260905193003 | 56 | 0 | 0.0 | 0.0 | 0.00 | 0.00 | 0.00 | 91 | 993.4 |
| 20260905192003 | 56 | 0 | 0.0 | 0.0 | 0.00 | 0.00 | 0.00 | 90 | 993.4 |
| 20260905191003 | 56 | 0 | 0.0 | 0.0 | 0.00 | 0.00 | 0.00 | 90 | 993.4 |
| 20260905190003 | 56 | 0 | 0.0 | 0.0 | 0.00 | 0.00 | 0.00 | 90 | 993.5 |
| 20260905185003 | 56 | 0 | 0.0 | 0.0 | 0.00 | 0.00 | 0.00 | 90 | 993.5 |
| 20260905184003 | 57 | 0 | 0.0 | 0.0 | 0.00 | 0.00 | 0.00 | 89 | 993.5 |
| 20260905183003 | 57 | 0 | 0.0 | 0.0 | 0.00 | 0.00 | 0.00 | 89 | 993.5 |
| 20260905182003 | 57 | 0 | 0.0 | 0.0 | 0.00 | 0.00 | 0.00 | 89 | 993.5 |
| 20260905181003 | 57 | 0 | 0.0 | 0.0 | 0.00 | 0.00 | 0.00 | 89 | 993.5 |
| 20260905180003 | 56 | 0 | 0.0 | 0.0 | 0.00 | 0.00 | 0.00 | 90 | 993.5 |
| 20260905175003 | 56 | 0 | 0.0 | 0.0 | 0.00 | 0.00 | 0.00 | 90 | 993.5 |
| 20260905174003 | 56 | 0 | 0.0 | 0.0 | 0.00 | 0.00 | 0.00 | 90 | 993.4 |
| 20260905173003 | 56 | 0 | 0.0 | 0.0 | 0.00 | 0.00 | 0.00 | 90 | 993.4 |
| 20260905172003 | 55 | 0 | 0.0 | 0.0 | 0.00 | 0.00 | 0.00 | 90 | 993.4 |
| 20260905171003 | 55 | 0 | 0.0 | 0.0 | 0.00 | 0.00 | 0.00 | 90 | 993.4 |
| 20260905170003 | 55 | 0 | 0.0 | 0.0 | 0.00 | 0.00 | 0.00 | 90 | 993.2 |
| 20260905165003 | 55 | 0 | 0.0 | 0.0 | 0.00 | 0.00 | 0.00 | 90 | 993.1 |
| 20260905164003 | 55 | 0 | 0.0 | 0.0 | 0.00 | 0.00 | 0.00 | 89 | 993.2 |
| 20260905163003 | 55 | 0 | 0.0 | 0.0 | 0.00 | 0.00 | 0.00 | 89 | 993.1 |
| 20260905162003 | 55 | 0 | 0.0 | 0.0 | 0.00 | 0.00 | 0.00 | 88 | 993.2 |
| 20260905161003 | 55 | 342 | 0.0 | 2.0 | 0.00 | 0.00 | 0.00 | 86 | 993.0 |
| 20260905160003 | 57 | 342 | 1.0 | 2.0 | 0.00 | 0.00 | 0.00 | 83 | 993.1 |
| 20260905155003 | 59 | 342 | 1.0 | 3.0 | 0.00 | 0.00 | 0.00 | 81 | 992.9 |
| 20260905154003 | 59 | 342 | 1.0 | 2.0 | 0.00 | 0.00 | 0.00 | 83 | 992.7 |
| 20260905153003 | 59 | 342 | 1.0 | 3.0 | 0.00 | 0.00 | 0.00 | 82 | 992.6 |
| 20260905152003 | 59 | 342 | 1.0 | 3.0 | 0.00 | 0.00 | 0.00 | 81 | 992.6 |
| 20260905151003 | 59 | 342 | 1.0 | 2.0 | 0.00 | 0.00 | 0.00 | 80 | 992.5 |
| 20260905150003 | 60 | 342 | 1.0 | 3.0 | 0.00 | 0.00 | 0.00 | 81 | 992.5 |
| 20260905145003 | 60 | 342 | 1.0 | 3.0 | 0.00 | 0.00 | 0.00 | 79 | 992.3 |
| 20260905144003 | 60 | 342 | 1.0 | 2.0 | 0.00 | 0.00 | 0.00 | 78 | 992.3 |
| 20260905143003 | 60 | 342 | 0.0 | 2.0 | 0.00 | 0.00 | 0.00 | 79 | 992.1 |
| 20260905142003 | 60 | 342 | 0.0 | 2.0 | 0.00 | 0.00 | 0.00 | 80 | 992.0 |
| 20260905141003 | 60 | 342 | 0.0 | 2.0 | 0.00 | 0.00 | 0.00 | 82 | 992.0 |
| 20260905140004 | 60 | 342 | 1.0 | 3.0 | 0.00 | 0.00 | 0.00 | 81 | 991.9 |
| 20260905135003 | 60 | 342 | 0.0 | 2.0 | 0.00 | 0.00 | 0.00 | 79 | 991.9 |
| 20260905134003 | 59 | 342 | 0.0 | 2.0 | 0.00 | 0.00 | 0.00 | 79 | 991.9 |
| 20260905133003 | 59 | 342 | 0.0 | 2.0 | 0.00 | 0.00 | 0.00 | 79 | 991.8 |
| 20260905132003 | 58 | 342 | 0.0 | 2.0 | 0.00 | 0.00 | 0.00 | 79 | 991.8 |
| 20260905131003 | 58 | 342 | 0.0 | 1.0 | 0.00 | 0.00 | 0.00 | 81 | 991.8 |
| 20260905130003 | 57 | 0 | 0.0 | 0.0 | 0.00 | 0.00 | 0.00 | 82 | 991.7 |
| 20260905125003 | 57 | 342 | 0.0 | 2.0 | 0.00 | 0.00 | 0.00 | 82 | 991.8 |
| 20260905124003 | 58 | 342 | 1.0 | 3.0 | 0.00 | 0.00 | 0.00 | 80 | 991.7 |
| 20260905123003 | 59 | 342 | 1.0 | 3.0 | 0.00 | 0.00 | 0.00 | 80 | 991.6 |
| 20260905122003 | 60 | 340 | 1.0 | 4.0 | 0.00 | 0.00 | 0.00 | 82 | 991.6 |
| 20260905121003 | 60 | 339 | 1.0 | 2.0 | 0.00 | 0.00 | 0.00 | 79 | 991.6 |
| 20260905120003 | 60 | 339 | 1.0 | 3.0 | 0.00 | 0.00 | 0.00 | 80 | 991.4 |
| 20260905115003 | 60 | 339 | 1.0 | 2.0 | 0.00 | 0.00 | 0.00 | 82 | 991.3 |
| 20260905114003 | 60 | 339 | 0.0 | 3.0 | 0.00 | 0.00 | 0.00 | 80 | 991.2 |
| 20260905113003 | 61 | 0 | 0.0 | 0.0 | 0.00 | 0.00 | 0.00 | 80 | 991.1 |
| 20260905112003 | 61 | 0 | 0.0 | 0.0 | 0.00 | 0.00 | 0.00 | 77 | 991.2 |
| 20260905111003 | 61 | 0 | 0.0 | 0.0 | 0.00 | 0.00 | 0.00 | 76 | 991.1 |
| 20260905110003 | 61 | 0 | 0.0 | 0.0 | 0.00 | 0.00 | 0.00 | 77 | 991.0 |
| 20260905105003 | 61 | 0 | 0.0 | 0.0 | 0.00 | 0.00 | 0.00 | 79 | 991.0 |
| 20260905104003 | 60 | 0 | 0.0 | 0.0 | 0.00 | 0.00 | 0.00 | 80 | 991.0 |
| 20260905103003 | 60 | 0 | 0.0 | 0.0 | 0.00 | 0.00 | 0.00 | 80 | 991.0 |
| 20260905102003 | 60 | 0 | 0.0 | 0.0 | 0.00 | 0.00 | 0.00 | 80 | 990.9 |
| 20260905101003 | 60 | 0 | 0.0 | 0.0 | 0.00 | 0.00 | 0.00 | 81 | 990.8 |
| 20260905100003 | 60 | 0 | 0.0 | 0.0 | 0.00 | 0.00 | 0.00 | 81 | 990.7 |
| 20260905095003 | 60 | 0 | 0.0 | 0.0 | 0.00 | 0.00 | 0.00 | 82 | 990.7 |
| 20260905094003 | 60 | 338 | 0.0 | 1.0 | 0.00 | 0.00 | 0.00 | 84 | 990.6 |
| 20260905093003 | 59 | 0 | 0.0 | 0.0 | 0.00 | 0.00 | 0.00 | 85 | 990.7 |
| 20260905092003 | 58 | 338 | 0.0 | 1.0 | 0.00 | 0.00 | 0.00 | 86 | 990.7 |
| 20260905091003 | 58 | 0 | 0.0 | 0.0 | 0.00 | 0.00 | 0.00 | 87 | 990.6 |